Location: Cheyres
(46.8153°N, 6.7877°E)
Time: 02:19:11
(UTC+00:00)

Cosmos 1898 Rocket - Pass Details

Date: 11 May 2021
Orbit: 753 x 784 km, 74.0° (Epoch: 18 June)

Event Time Altitude Azimuth Distance (km) Brightness Sun altitude
Exits shadow 22:47:29 27° 244° (WSW) 1,470 4.8 -24.4°
Maximum altitude 22:49:57 44° 299° (WNW) 1,071 4.4 -24.5°
Drops below altitude 10° 22:55:03 10° 11° (NNE) 2,349 6.9 -24.6°
Sets 22:57:35 0° 18° (NNE) 3,283 7.8 -24.7°
